Time,TemperatureF,DewpointF,PressureIn,WindDirection,WindDirectionDegrees,WindSpeedMPH,WindSpeedGustMPH,Humidity,HourlyPrecipIn,Conditions,Clouds,dailyrainin,SoftwareType,DateUTC
2013-02-20 00:00:00,30.7,25.9,29.80,SE,135,5.0,10.0,82,0.00,,OVC080,0.00,VWS V14.01,2013-02-20 07:00:00,
2013-02-20 00:30:00,30.5,25.7,29.80,SE,135,6.0,12.0,82,0.00,,OVC080,0.00,VWS V14.01,2013-02-20 07:30:00,
2013-02-20 01:00:00,30.9,26.4,29.77,ESE,112,3.0,9.0,83,0.00,,OVC080,0.00,VWS V14.01,2013-02-20 08:00:00,
2013-02-20 01:30:00,30.0,26.0,29.76,NW,315,2.0,7.0,85,0.00,,OVC080,0.00,VWS V14.01,2013-02-20 08:30:00,
2013-02-20 02:00:00,29.2,26.1,29.76,East,90,1.0,7.0,88,0.00,,OVC080,0.00,VWS V14.01,2013-02-20 09:00:00,
2013-02-20 02:30:00,29.0,26.4,29.76,ESE,112,0.0,1.0,90,0.00,,OVC080,0.00,VWS V14.01,2013-02-20 09:30:00,
2013-02-20 03:00:00,29.1,26.8,29.75,East,90,1.0,6.0,91,0.00,,OVC080,0.00,VWS V14.01,2013-02-20 10:00:00,
2013-02-20 03:30:00,29.3,27.0,29.73,NE,45,1.0,4.0,91,0.00,,OVC080,0.00,VWS V14.01,2013-02-20 10:30:00,
2013-02-20 04:00:00,29.2,26.9,29.73,East,90,2.0,4.0,91,0.00,,OVC080,0.00,VWS V14.01,2013-02-20 11:00:00,
2013-02-20 04:30:00,29.1,27.1,29.73,ENE,68,1.0,4.0,92,0.00,,OVC080,0.00,VWS V14.01,2013-02-20 11:30:00,
2013-02-20 05:00:00,29.5,27.2,29.71,East,90,2.0,4.0,91,0.00,,OVC080,0.00,VWS V14.01,2013-02-20 12:00:00,
2013-02-20 05:30:00,31.8,26.9,29.68,ESE,112,5.0,11.0,82,0.00,,OVC080,0.00,VWS V14.01,2013-02-20 12:30:00,
2013-02-20 06:00:00,31.6,26.5,29.67,SE,135,3.0,10.0,81,0.00,,OVC080,0.00,VWS V14.01,2013-02-20 13:00:00,
2013-02-20 06:30:00,31.0,26.2,29.67,ESE,112,5.0,9.0,82,0.00,,OVC080,0.00,VWS V14.01,2013-02-20 13:30:00,
2013-02-20 07:00:00,32.9,25.5,29.66,ESE,112,4.0,8.0,74,0.00,,OVC080,0.00,VWS V14.01,2013-02-20 14:00:00,
2013-02-20 07:30:00,32.8,24.5,29.65,SE,135,6.0,12.0,71,0.00,,OVC080,0.00,VWS V14.01,2013-02-20 14:30:00,
2013-02-20 08:00:00,31.9,26.1,29.65,SE,135,3.0,9.0,79,0.00,,OVC080,0.00,VWS V14.01,2013-02-20 15:00:00,
2013-02-20 08:30:00,34.1,25.7,29.62,East,90,1.0,4.0,71,0.00,,OVC080,0.00,VWS V14.01,2013-02-20 15:30:00,
2013-02-20 09:00:00,33.0,26.0,29.61,SW,225,2.0,4.0,75,0.00,,OVC080,0.00,VWS V14.01,2013-02-20 16:00:00,
2013-02-20 09:30:00,36.8,26.5,29.59,NNW,338,1.0,4.0,66,0.00,,OVC080,0.00,VWS V14.01,2013-02-20 16:30:00,
2013-02-20 10:00:00,40.1,28.1,29.57,NNW,338,1.0,4.0,62,0.00,,OVC080,0.00,VWS V14.01,2013-02-20 17:00:00,
2013-02-20 10:30:00,41.3,23.6,29.54,SSW,202,5.0,16.0,49,0.01,,OVC080,0.01,VWS V14.01,2013-02-20 17:30:00,
2013-02-20 11:00:00,39.3,21.8,29.53,SW,225,7.0,15.0,49,0.06,,OVC080,0.06,VWS V14.01,2013-02-20 18:00:00,
2013-02-20 11:30:00,39.9,23.3,29.50,SW,225,7.0,22.0,51,0.09,,OVC080,0.09,VWS V14.01,2013-02-20 18:30:00,
2013-02-20 12:00:00,37.5,21.0,29.43,SSW,202,11.0,30.0,51,0.08,,OVC080,0.09,VWS V14.01,2013-02-20 19:00:00,
2013-02-20 12:30:00,38.7,22.6,29.43,SW,225,10.0,23.0,52,0.03,,OVC080,0.09,VWS V14.01,2013-02-20 19:30:00,
2013-02-20 13:00:00,36.6,24.8,29.43,WNW,292,5.0,12.0,62,0.00,,OVC080,0.09,VWS V14.01,2013-02-20 20:00:00,
2013-02-20 13:30:00,34.2,23.7,29.46,WSW,248,11.0,29.0,65,0.00,,OVC080,0.09,VWS V14.01,2013-02-20 20:30:00,
2013-02-20 14:00:00,29.0,26.2,29.48,West,270,6.0,17.0,89,0.00,,OVC080,0.09,VWS V14.01,2013-02-20 21:00:00,
2013-02-20 14:30:00,28.6,25.8,29.49,West,270,1.0,4.0,89,0.00,,OVC080,0.09,VWS V14.01,2013-02-20 21:30:00,
2013-02-20 15:00:00,28.1,25.5,29.52,West,270,3.0,18.0,90,0.00,,OVC080,0.09,VWS V14.01,2013-02-20 22:00:00,
2013-02-20 15:30:00,26.3,24.0,29.55,West,270,7.0,14.0,91,0.00,,OVC080,0.09,VWS V14.01,2013-02-20 22:30:00,
2013-02-20 16:00:00,25.5,23.5,29.56,WSW,248,4.0,10.0,92,0.00,,OVC080,0.09,VWS V14.01,2013-02-20 23:00:00,
2013-02-20 16:30:00,25.4,23.4,29.56,East,90,1.0,4.0,92,0.00,,OVC080,0.09,VWS V14.01,2013-02-20 23:30:00,
2013-02-20 17:00:00,24.7,22.2,29.57,East,90,2.0,6.0,90,0.00,,OVC080,0.09,VWS V14.01,2013-02-21 00:00:00,
2013-02-20 17:30:00,24.0,21.5,29.58,SE,135,2.0,6.0,90,0.00,,OVC080,0.09,VWS V14.01,2013-02-21 00:30:00,
2013-02-20 18:00:00,24.9,21.3,29.59,SSE,158,4.0,9.0,86,0.00,,OVC080,0.09,VWS V14.01,2013-02-21 01:00:00,
2013-02-20 18:30:00,24.5,20.4,29.60,SE,135,7.0,12.0,84,0.00,,OVC080,0.09,VWS V14.01,2013-02-21 01:30:00,
2013-02-20 19:00:00,25.2,20.8,29.61,SE,135,6.0,11.0,83,0.00,,OVC080,0.09,VWS V14.01,2013-02-21 02:00:00,
2013-02-20 19:30:00,24.8,20.1,29.62,SE,135,6.0,13.0,82,0.00,,OVC080,0.09,VWS V14.01,2013-02-21 02:30:00,
2013-02-20 20:00:00,23.5,18.5,29.63,SE,135,4.0,9.0,81,0.00,,OVC080,0.09,VWS V14.01,2013-02-21 03:00:00,
2013-02-20 20:30:00,22.4,18.0,29.64,ESE,112,4.0,6.0,83,0.00,,OVC080,0.09,VWS V14.01,2013-02-21 03:30:00,
2013-02-20 21:00:00,22.0,17.4,29.63,SE,135,3.0,6.0,82,0.00,,OVC080,0.09,VWS V14.01,2013-02-21 04:00:00,
2013-02-20 21:30:00,21.2,16.6,29.63,ESE,112,3.0,6.0,82,0.00,,OVC080,0.09,VWS V14.01,2013-02-21 04:30:00,
2013-02-20 22:00:00,21.0,17.2,29.62,SE,135,3.0,6.0,85,0.00,,OVC080,0.09,VWS V14.01,2013-02-21 05:00:00,
2013-02-20 22:30:00,23.4,19.0,29.61,ESE,112,3.0,5.0,83,0.00,,OVC080,0.09,VWS V14.01,2013-02-21 05:30:00,
2013-02-20 23:00:00,21.7,17.6,29.59,ESE,112,3.0,5.0,84,0.00,,OVC080,0.09,VWS V14.01,2013-02-21 06:00:00,
2013-02-20 23:30:00,19.9,15.9,29.59,SE,135,1.0,4.0,84,0.00,,OVC080,0.09,VWS V14.01,2013-02-21 06:30:00,